星链-1467 (STARLINK-1467 )

导读

STARLINK-1467是美国太空探索技术公司SpaceX星链星座的成员卫星,2020年6月13日发射升空,属于星链项目的早期组网卫星,承担低轨互联网卫星组网任务,为全球提供高速互联网接入服务,运行在近地轨道,通过星间链路实现通信传输,推动全球卫星互联网覆盖建设。

Basic Information
目录编号:
45733
目录名称:
STARLINK-1467
国际标识:
2020-038D
轨道中心:
EARTH
卫星名称:
星链-1467
卫星全名:
星链-1467 (STARLINK-1467 )
卫星状态:
已陨落 最后检测时间 2024-11-24
发射日期:
2020-06-13 UTC
国别 :
美国 (US)
星等 :
--
Orbit Information
数据来源 国际轨道数据
星历时间: 2024-11-24T09:56:29+0800
轨道信息已过期567天
半长轴: 6525.372km
偏心率: 0.0005261
轨道倾角: 53.042°
近地点辐角 359.024°
升交点赤经 57.251°
平近点角 143.859°
近地点: 143.804km
远地点: 150.67km
周期: 87.431分钟
每日圈数: 16.470051
Detailed Information
固有亮度:
5
最大亮度:
2.5
卫星平台:
Starlink V1.0
覆盖范围:
全球
运营商:
太空探索技术公司
运营商所在国:
美国
制造商(研发单位):
太空探索技术公司
制造商所在国:
美国
使用方式:
暂无
Satellite Introduction
星链(Starlink)计划是由太空探索技术公司(SpaceX)提出的一个巨型低轨卫星互联网星座项目,计划在2019年至2024年间在太空搭建由约1.2万颗卫星组成的“星链”网络,其中1584颗将部署在地球上空550千米处的近地轨道,并从2020年开始工作。该卫星仍在工作。